GW1031 Weather Reports


Display with metric or nautical units.
time (UTC)temp
F
wind
direction
speed
MPH
gust
MPH
rain 1hr
in
rain 24hr
in
rain mn
in
humidity
%
barometer
mb
20260904125044 50 154 0.0 0.0 0.00 0.00 0.00 92 1023.5
20260904124539 50 138 0.0 0.0 0.00 0.00 0.00 92 1023.5
20260904124035 49 154 0.0 0.0 0.00 0.00 0.00 94 1023.2
20260904123535 49 153 0.0 0.0 0.00 0.00 0.00 94 1023.5
20260904123030 49 167 0.0 0.0 0.00 0.00 0.00 93 1023.4
20260904122530 50 167 0.0 0.0 0.00 0.00 0.00 93 1023.2
20260904122025 49 180 0.0 0.0 0.00 0.00 0.00 93 1023.2
20260904121521 49 191 0.0 0.0 0.00 0.00 0.00 93 1023.2
20260904121017 50 140 0.0 0.0 0.00 0.00 0.00 93 1023.0
20260904120513 49 131 0.0 0.0 0.00 0.00 0.00 93 1023.1
20260904120008 50 153 0.0 0.0 0.00 0.00 0.00 93 1023.0
20260904115504 50 154 0.0 0.0 0.00 0.00 0.00 94 1022.9
20260904115003 50 134 0.0 0.0 0.00 0.00 0.00 94 1023.0
20260904114458 50 150 0.0 0.0 0.00 0.00 0.00 94 1022.9
20260904113953 50 139 0.0 0.0 0.00 0.00 0.00 94 1023.1
20260904113452 49 152 0.0 0.0 0.00 0.00 0.00 94 1022.8
20260904112952 49 185 0.0 0.0 0.00 0.00 0.00 94 1022.9
20260904112448 49 185 0.0 0.0 0.00 0.00 0.00 94 1022.9
20260904111943 48 174 0.0 0.0 0.00 0.00 0.00 94 1022.9
20260904111439 49 174 0.0 0.0 0.00 0.00 0.00 93 1022.8
20260904110934 49 174 0.0 0.0 0.00 0.00 0.00 93 1022.8
20260904110433 49 179 0.0 0.0 0.00 0.00 0.00 93 1023.0
20260904105928 50 147 0.0 0.0 0.00 0.00 0.00 93 1022.8
20260904105424 50 143 0.0 0.0 0.00 0.00 0.00 94 1022.8
20260904104919 49 147 0.0 0.0 0.00 0.00 0.00 93 1022.6
20260904104418 49 148 0.0 0.0 0.00 0.00 0.00 93 1022.5
20260904103915 49 158 0.0 0.0 0.00 0.00 0.00 93 1022.8
20260904103410 50 184 0.0 0.0 0.00 0.00 0.00 92 1022.5
20260904102907 50 156 0.0 0.0 0.00 0.00 0.00 93 1022.8
20260904102402 50 156 0.0 0.0 0.00 0.00 0.00 93 1022.4
20260904101857 49 179 0.0 0.0 0.00 0.00 0.00 94 1022.4
20260904101354 50 160 0.0 0.0 0.00 0.00 0.00 93 1022.4
20260904100849 50 160 0.0 0.0 0.00 0.00 0.00 92 1022.4
20260904100345 50 157 0.0 0.0 0.00 0.00 0.00 92 1022.3
20260904095839 50 160 0.0 0.0 0.00 0.00 0.00 92 1022.3
20260904095334 50 175 0.0 0.0 0.00 0.00 0.00 91 1022.3
20260904094829 50 175 0.0 0.0 0.00 0.00 0.00 91 1022.1
20260904094324 50 177 0.0 0.0 0.00 0.00 0.00 91 1022.3
20260904093820 50 177 0.0 0.0 0.00 0.00 0.00 90 1022.0
20260904093315 51 147 0.0 0.0 0.00 0.00 0.00 91 1022.1
20260904092810 51 115 1.0 1.0 0.00 0.00 0.00 91 1022.1
20260904092307 50 173 0.0 0.0 0.00 0.00 0.00 91 1021.8
20260904091803 50 156 0.0 0.0 0.00 0.00 0.00 92 1022.1
20260904091302 51 156 0.0 0.0 0.00 0.00 0.00 92 1022.0
20260904090758 51 171 0.0 0.0 0.00 0.00 0.00 91 1022.1
20260904090254 51 185 0.0 0.0 0.00 0.00 0.00 90 1022.3
20260904085749 51 191 0.0 0.0 0.00 0.00 0.00 90 1022.3
20260904085244 51 151 0.0 0.0 0.00 0.00 0.00 90 1022.3
20260904084738 51 151 0.0 0.0 0.00 0.00 0.00 89 1022.3
20260904084234 51 151 0.0 0.0 0.00 0.00 0.00 88 1022.3
20260904083730 52 170 0.0 0.0 0.00 0.00 0.00 86 1022.1
20260904083226 52 170 0.0 0.0 0.00 0.00 0.00 85 1022.3
20260904082720 52 167 0.0 0.0 0.00 0.00 0.00 85 1022.0
20260904082216 53 145 0.0 0.0 0.00 0.00 0.00 85 1022.1
20260904081711 53 146 0.0 0.0 0.00 0.00 0.00 86 1022.3
20260904081207 53 186 0.0 0.0 0.00 0.00 0.00 81 1022.3
20260904080703 53 160 0.0 0.0 0.00 0.00 0.00 81 1022.3
20260904080158 53 192 0.0 0.0 0.00 0.00 0.00 83 1022.5
20260904075655 53 160 0.0 0.0 0.00 0.00 0.00 85 1022.4
20260904075155 53 160 0.0 0.0 0.00 0.00 0.00 85 1022.5
20260904074648 54 141 0.0 0.0 0.00 0.00 0.00 84 1022.5
20260904074143 54 160 0.0 0.0 0.00 0.00 0.00 83 1022.6
20260904073638 54 155 0.0 0.0 0.00 0.00 0.00 82 1022.3
20260904073135 54 135 0.0 0.0 0.00 0.00 0.00 84 1022.9
20260904072630 54 185 0.0 0.0 0.00 0.00 0.00 81 1022.8
20260904072125 54 208 0.0 0.0 0.00 0.00 0.00 84 1022.5
20260904071621 54 152 0.0 0.0 0.00 0.00 0.00 83 1022.6
20260904071115 55 152 0.0 0.0 0.00 0.00 0.00 82 1022.4
20260904070614 55 152 0.0 0.0 0.00 0.00 0.00 80 1022.5
20260904070109 55 152 0.0 0.0 0.00 0.00 0.00 80 1022.4
20260904065604 55 170 0.0 0.0 0.00 0.00 0.00 80 1022.6
20260904065101 55 149 0.0 0.0 0.00 0.00 0.00 78 1022.4
20260904064556 56 148 0.0 0.0 0.00 0.00 0.00 81 1022.5
20260904064055 56 151 0.0 0.0 0.00 0.00 0.00 81 1022.3
20260904063552 56 132 0.0 0.0 0.00 0.00 0.00 79 1022.4
20260904063047 56 171 0.0 0.0 0.00 0.00 0.00 76 1022.4
20260904062543 56 176 0.0 0.0 0.00 0.00 0.00 76 1022.5
20260904062038 56 258 0.0 1.0 0.00 0.00 0.00 79 1022.3
20260904061534 56 142 0.0 0.0 0.00 0.00 0.00 78 1022.4
20260904061031 55 186 0.0 0.0 0.00 0.00 0.00 77 1022.1
20260904060527 55 176 0.0 0.0 0.00 0.00 0.00 77 1022.4
20260904060022 55 174 0.0 0.0 0.00 0.02 0.02 78 1022.3
20260904055517 56 166 0.0 0.0 0.00 0.02 0.02 79 1022.3
20260904055012 56 143 0.0 0.0 0.00 0.02 0.02 79 1022.3
20260904054508 57 100 2.0 2.0 0.00 0.02 0.02 76 1022.0
20260904054004 57 220 0.0 0.0 0.00 0.02 0.02 70 1022.1
20260904053503 57 184 0.0 0.0 0.00 0.02 0.02 73 1021.9
20260904052958 56 186 0.0 0.0 0.00 0.02 0.02 75 1021.8
20260904052455 56 196 0.0 0.0 0.00 0.02 0.02 75 1022.0
20260904051950 56 161 0.0 0.0 0.00 0.02 0.02 76 1021.9
20260904051447 56 161 0.0 0.0 0.00 0.02 0.02 77 1021.5
20260904050946 57 153 0.0 0.0 0.00 0.02 0.02 75 1021.7
20260904050443 57 153 0.0 0.0 0.00 0.02 0.02 77 1021.7
20260904045938 56 148 0.0 0.0 0.00 0.02 0.02 78 1021.9
20260904045433 57 148 0.0 0.0 0.00 0.02 0.02 75 1021.7
20260904044932 56 147 0.0 0.0 0.00 0.02 0.02 81 1022.0
20260904044429 55 167 0.0 0.0 0.00 0.02 0.02 80 1021.9
20260904043925 55 167 0.0 0.0 0.00 0.02 0.02 79 1022.0
20260904043421 55 168 0.0 0.0 0.00 0.02 0.02 78 1022.0
20260904042916 56 145 0.0 0.0 0.00 0.02 0.02 78 1021.8
20260904042413 56 155 0.0 0.0 0.00 0.02 0.02 72 1021.8
20260904041908 56 155 0.0 0.0 0.00 0.02 0.02 76 1021.7
20260904041404 56 157 0.0 0.0 0.00 0.02 0.02 78 1021.8
20260904040900 56 158 0.0 0.0 0.00 0.02 0.02 75 1021.8
20260904040354 56 173 0.0 0.0 0.00 0.02 0.02 76 1021.7
20260904035850 56 175 0.0 0.0 0.00 0.02 0.02 76 1021.4
20260904035346 56 175 0.0 0.0 0.00 0.02 0.02 80 1021.7
20260904034845 56 174 0.0 0.0 0.00 0.02 0.02 77 1021.5
20260904034341 57 175 0.0 0.0 0.00 0.02 0.02 76 1021.7
20260904033837 58 175 0.0 0.0 0.00 0.02 0.02 76 1021.8
20260904033333 58 182 0.0 0.0 0.00 0.02 0.02 75 1021.5
20260904032829 59 154 0.0 0.0 0.00 0.02 0.02 69 1021.5
20260904032329 58 177 0.0 0.0 0.00 0.02 0.02 70 1021.4
20260904031822 59 177 0.0 0.0 0.00 0.02 0.02 73 1021.7
20260904031318 59 181 0.0 0.0 0.00 0.02 0.02 72 1021.5
20260904030814 59 133 0.0 0.0 0.00 0.02 0.02 73 1021.5
20260904030309 60 160 0.0 0.0 0.00 0.02 0.02 72 1021.4
20260904025805 60 140 0.0 0.0 0.00 0.02 0.02 73 1021.2
20260904025300 60 174 0.0 0.0 0.00 0.02 0.02 67 1020.9
20260904024750 61 174 0.0 0.0 0.00 0.02 0.02 68 1021.0
20260904024245 62 174 0.0 0.0 0.00 0.02 0.02 68 1021.3
20260904023742 61 171 0.0 0.0 0.00 0.02 0.02 60 1021.2
20260904023237 61 160 0.0 0.0 0.00 0.02 0.02 64 1020.9
20260904022736 61 155 0.0 0.0 0.00 0.02 0.02 64 1021.0
20260904022234 61 152 0.0 0.0 0.00 0.02 0.02 71 1020.8
20260904021730 62 168 0.0 0.0 0.00 0.02 0.02 69 1020.8
20260904021230 62 164 0.0 0.0 0.00 0.02 0.02 64 1020.8
20260904020726 62 164 0.0 0.0 0.00 0.02 0.02 63 1020.7
20260904020225 63 171 0.0 0.0 0.00 0.02 0.02 64 1020.4
20260904015724 64 171 0.0 0.0 0.00 0.02 0.02 64 1020.4
20260904015219 64 168 0.0 0.0 0.00 0.02 0.02 62 1020.4
20260904014717 64 183 0.0 0.0 0.00 0.02 0.02 62 1020.6
20260904014213 65 143 0.0 0.0 0.00 0.02 0.02 61 1020.6
20260904013709 66 141 0.0 0.0 0.00 0.02 0.02 61 1020.3
20260904013205 69 105 1.0 1.0 0.00 0.02 0.02 58 1019.9
20260904012701 69 195 0.0 0.0 0.00 0.02 0.02 47 1019.9
20260904012159 69 210 0.0 0.0 0.00 0.02 0.02 46 1020.2
20260904011659 70 214 0.0 0.0 0.00 0.02 0.02 48 1020.4
20260904011154 70 166 0.0 0.0 0.00 0.02 0.02 46 1020.2
20260904010649 71 166 0.0 0.0 0.00 0.02 0.02 46 1020.4
20260904010146 72 167 0.0 0.0 0.00 0.02 0.02 42 1020.2
20260904005641 73 179 0.0 0.0 0.00 0.02 0.02 40 1020.3
20260904005136 74 185 0.0 0.0 0.00 0.02 0.02 40 1020.1
20260904004632 74 175 0.0 0.0 0.00 0.02 0.02 40 1020.1
20260904004126 74 149 0.0 0.0 0.00 0.02 0.02 38 1020.2
20260904003622 75 186 0.0 1.0 0.00 0.02 0.02 38 1020.1
20260904003118 77 205 0.0 0.0 0.00 0.02 0.02 37 1019.9
20260904002613 77 183 0.0 0.0 0.00 0.02 0.02 36 1020.3
20260904002108 78 211 1.0 1.0 0.00 0.02 0.02 34 1020.4
20260904001603 80 341 0.0 1.0 0.00 0.02 0.02 35 1020.2
20260904001102 81 217 0.0 1.0 0.00 0.02 0.02 31 1020.2
20260904000557 81 168 1.0 1.0 0.00 0.02 0.02 30 1020.1
20260904000053 81 178 0.0 0.0 0.00 0.02 0.02 35 1020.1
20260903235547 79 190 0.0 0.0 0.00 0.02 0.02 37 1020.3
20260903235043 79 205 0.0 0.0 0.00 0.02 0.02 32 1020.1
20260903234538 81 280 2.0 2.0 0.00 0.02 0.02 32 1020.3
20260903234034 82 194 2.0 3.0 0.00 0.02 0.02 31 1019.9
20260903233530 82 175 1.0 1.0 0.00 0.02 0.02 30 1020.2
20260903233025 81 201 1.0 1.0 0.00 0.02 0.02 32 1020.1
20260903232521 80 210 0.0 0.0 0.00 0.02 0.02 36 1020.2
20260903232021 81 222 0.0 1.0 0.00 0.02 0.02 32 1020.1
20260903231515 81 180 0.0 0.0 0.00 0.02 0.02 33 1020.2
20260903231009 80 66 0.0 1.0 0.00 0.02 0.02 30 1020.2
20260903230506 81 246 0.0 0.0 0.00 0.02 0.02 31 1020.3
20260903230003 81 131 0.0 1.0 0.00 0.02 0.02 33 1020.4
20260903225457 81 245 1.0 1.0 0.00 0.02 0.02 30 1020.3
20260903224953 84 200 3.0 5.0 0.00 0.02 0.02 29 1020.4
20260903224449 85 157 2.0 2.0 0.00 0.02 0.02 28 1020.4
20260903223945 83 94 0.0 1.0 0.00 0.02 0.02 34 1020.3
20260903223444 80 199 1.0 1.0 0.00 0.02 0.02 33 1020.4
20260903222943 82 169 0.0 0.0 0.00 0.02 0.02 30 1020.4
20260903222438 85 224 1.0 2.0 0.00 0.02 0.02 27 1020.7
20260903221937 85 206 1.0 1.0 0.00 0.02 0.02 27 1020.7
20260903221432 83 98 0.0 1.0 0.00 0.02 0.02 31 1020.6
20260903220929 84 155 0.0 1.0 0.00 0.02 0.02 27 1020.7
20260903220424 82 185 0.0 0.0 0.00 0.02 0.02 29 1020.8
20260903215921 82 99 1.0 3.0 0.00 0.02 0.02 32 1020.6
20260903215419 83 128 1.0 1.0 0.00 0.02 0.02 29 1020.9
20260903214916 85 68 0.0 0.0 0.00 0.02 0.02 30 1021.0
20260903214413 85 215 1.0 2.0 0.00 0.02 0.02 27 1021.0
20260903213912 84 106 2.0 2.0 0.00 0.02 0.02 28 1021.0
20260903213408 82 202 0.0 1.0 0.00 0.02 0.02 34 1020.9
20260903212903 80 129 0.0 0.0 0.00 0.02 0.02 34 1021.3
20260903212359 79 146 2.0 2.0 0.00 0.02 0.02 31 1021.3
20260903211859 81 143 1.0 1.0 0.00 0.02 0.02 30 1021.3
20260903211355 84 58 1.0 1.0 0.00 0.02 0.02 33 1021.3
20260903210851 84 233 0.0 0.0 0.00 0.02 0.02 31 1021.5
20260903210351 82 168 0.0 0.0 0.00 0.02 0.02 31 1021.3
20260903205851 83 54 1.0 2.0 0.00 0.02 0.02 29 1021.4
20260903205350 84 219 2.0 5.0 0.00 0.02 0.02 27 1021.8
20260903204845 84 172 2.0 2.0 0.00 0.02 0.02 28 1021.8
20260903204341 82 238 1.0 3.0 0.00 0.02 0.02 30 1021.7
20260903203837 83 77 0.0 1.0 0.00 0.02 0.02 32 1021.7
20260903203333 84 81 0.0 1.0 0.00 0.02 0.02 32 1021.5
20260903202831 82 113 0.0 1.0 0.00 0.02 0.02 33 1021.7
20260903202328 83 90 1.0 2.0 0.00 0.02 0.02 33 1021.7
20260903201827 83 129 1.0 1.0 0.00 0.02 0.02 36 1021.8
20260903201323 83 138 1.0 2.0 0.00 0.02 0.02 35 1021.8
20260903200821 84 125 1.0 1.0 0.00 0.02 0.02 32 1022.0
20260903200317 83 227 2.0 3.0 0.00 0.02 0.02 30 1022.1
20260903195812 82 212 0.0 1.0 0.00 0.02 0.02 32 1021.8
20260903195308 82 72 1.0 2.0 0.00 0.02 0.02 31 1022.3
20260903194803 82 121 1.0 2.0 0.00 0.02 0.02 31 1022.3
20260903194259 82 92 0.0 1.0 0.00 0.02 0.02 31 1022.0
20260903193754 82 13 1.0 2.0 0.00 0.02 0.02 30 1022.3
20260903193250 82 219 3.0 3.0 0.00 0.02 0.02 31 1022.1
20260903192745 82 198 0.0 0.0 0.00 0.02 0.02 36 1022.4
20260903192241 81 142 1.0 2.0 0.00 0.02 0.02 32 1022.3
20260903191737 81 227 3.0 3.0 0.00 0.02 0.02 31 1022.3
20260903191233 81 16 1.0 1.0 0.00 0.02 0.02 30 1022.4
20260903190727 80 173 3.0 3.0 0.00 0.02 0.02 30 1022.8
20260903190227 80 338 3.0 5.0 0.00 0.02 0.02 32 1022.6
20260903185722 80 170 3.0 5.0 0.00 0.02 0.02 32 1023.0
20260903185216 80 165 1.0 1.0 0.00 0.02 0.02 34 1022.9
20260903184713 80 177 1.0 3.0 0.00 0.02 0.02 33 1022.9
20260903184209 80 212 2.0 2.0 0.00 0.02 0.02 32 1023.1
20260903183708 79 137 1.0 2.0 0.00 0.02 0.02 33 1022.9
20260903183203 79 237 3.0 3.0 0.00 0.02 0.02 33 1023.1
20260903182702 78 263 3.0 6.0 0.00 0.02 0.02 33 1023.1
20260903182157 77 213 3.0 5.0 0.00 0.02 0.02 34 1023.1
20260903181655 77 191 2.0 2.0 0.00 0.02 0.02 36 1023.2
20260903181150 77 35 1.0 1.0 0.00 0.02 0.02 38 1023.2
20260903180646 77 178 0.0 1.0 0.00 0.02 0.02 36 1023.4
20260903180140 76 216 1.0 1.0 0.00 0.02 0.02 38 1023.5
20260903175638 75 161 0.0 1.0 0.00 0.02 0.02 40 1023.4
20260903175133 75 302 0.0 1.0 0.00 0.02 0.02 40 1023.4
20260903174628 75 184 1.0 1.0 0.00 0.02 0.02 41 1023.5
20260903174122 75 19 1.0 1.0 0.00 0.02 0.02 43 1023.5
20260903173617 74 243 1.0 2.0 0.00 0.02 0.02 45 1023.4
20260903173114 74 258 2.0 5.0 0.00 0.02 0.02 43 1023.2
20260903172608 74 259 1.0 1.0 0.00 0.02 0.02 45 1023.4
20260903172104 73 179 2.0 3.0 0.00 0.02 0.02 43 1023.7
20260903171603 72 273 1.0 1.0 0.00 0.02 0.02 50 1023.7
20260903171059 72 142 0.0 1.0 0.00 0.02 0.02 47 1023.6
20260903170558 71 52 0.0 1.0 0.00 0.02 0.02 45 1023.6
20260903170054 71 118 0.0 0.0 0.00 0.02 0.02 43 1023.5
20260903165550 71 141 0.0 0.0 0.00 0.02 0.02 50 1023.8
20260903165047 71 158 1.0 1.0 0.00 0.02 0.02 49 1023.8
20260903164547 71 92 0.0 1.0 0.00 0.02 0.02 51 1023.8
20260903164043 70 32 1.0 1.0 0.00 0.02 0.02 52 1023.8
20260903163543 70 136 0.0 0.0 0.00 0.02 0.02 54 1023.6
20260903163039 68 91 0.0 0.0 0.00 0.02 0.02 58 1023.7
20260903162535 67 115 0.0 1.0 0.00 0.02 0.02 61 1023.6
20260903162031 67 115 0.0 0.0 0.00 0.02 0.02 63 1023.7
20260903161526 67 174 0.0 0.0 0.00 0.02 0.02 62 1023.7
20260903161022 67 75 0.0 1.0 0.00 0.02 0.02 63 1023.7
20260903160520 66 159 0.0 0.0 0.00 0.02 0.02 65 1024.0
20260903160016 65 242 1.0 1.0 0.00 0.02 0.02 62 1024.0
20260903155514 64 153 0.0 1.0 0.00 0.02 0.02 67 1024.0
20260903155010 63 117 0.0 0.0 0.00 0.02 0.02 67 1024.1
20260903154506 64 103 0.0 0.0 0.00 0.02 0.02 69 1024.2
20260903154002 63 106 2.0 2.0 0.00 0.02 0.02 66 1024.3
20260903153457 63 146 0.0 1.0 0.00 0.02 0.02 70 1024.1
20260903152953 62 137 0.0 0.0 0.00 0.02 0.02 72 1024.2
20260903152448 61 44 1.0 1.0 0.00 0.02 0.02 71 1024.3
20260903151944 61 87 0.0 0.0 0.00 0.02 0.02 74 1024.5
20260903151438 60 118 0.0 1.0 0.07 0.02 0.02 75 1024.5
20260903150933 60 146 0.0 0.0 0.12 0.02 0.02 78 1024.5
20260903150428 60 187 0.0 0.0 0.05 0.01 0.01 80 1024.6
20260903145923 59 73 0.0 1.0 0.00 0.00 0.00 80 1024.6
20260903145418 58 125 0.0 1.0 0.00 0.00 0.00 79 1024.6
20260903144918 58 159 0.0 0.0 0.00 0.00 0.00 83 1024.6
20260903144418 58 111 0.0 1.0 0.00 0.00 0.00 83 1024.8
20260903143914 57 142 0.0 1.0 0.00 0.00 0.00 84 1024.7
20260903143410 56 147 0.0 0.0 0.00 0.00 0.00 85 1024.5
20260903142905 55 181 0.0 0.0 0.00 0.00 0.00 89 1024.6
20260903142401 55 133 0.0 0.0 0.00 0.00 0.00 91 1024.5
20260903141857 53 175 0.0 0.0 0.00 0.00 0.00 94 1024.8
20260903141352 53 165 0.0 0.0 0.00 0.00 0.00 93 1024.9
20260903140848 53 54 0.0 1.0 0.00 0.00 0.00 90 1025.1
20260903140343 53 97 1.0 1.0 0.00 0.00 0.00 90 1024.9
20260903135838 52 160 0.0 0.0 0.00 0.00 0.00 98 1025.1
20260903135334 50 164 0.0 0.0 0.00 0.00 0.00 99 1024.9
20260903134832 50 159 0.0 0.0 0.00 0.00 0.00 99 1024.8
20260903134328 49 166 0.0 0.0 0.00 0.00 0.00 99 1024.7
20260903133825 48 123 0.0 0.0 0.00 0.00 0.00 99 1024.7
20260903133322 48 189 0.0 1.0 0.00 0.00 0.00 99 1024.8
20260903132816 48 153 0.0 0.0 0.00 0.00 0.00 99 1024.7
20260903132312 48 195 0.0 0.0 0.00 0.00 0.00 99 1024.7
20260903131807 48 126 0.0 1.0 0.00 0.00 0.00 99 1024.6
20260903131306 48 132 0.0 0.0 0.00 0.00 0.00 99 1024.5
20260903130801 48 245 1.0 1.0 0.00 0.00 0.00 99 1024.5
20260903130255 48 70 0.0 1.0 0.00 0.00 0.00 99 1024.2
20260903125754 48 165 0.0 0.0 0.00 0.00 0.00 99 1024.5